sat.trackr.live / text

‹ back to catalog

GSAT0209 (GALILEO 12)

NORAD 41174 · 2015-079A

PAYLOAD ACTIVE UNKNOWN

§ Identity

Operator
Country
ESA
Launch date
2015-12-17
Launch site
FRGUI
Launch vehicle
Mass (kg)
RCS (m²)
6.73

Purposes: earth_obs, nav

External: N2YO · Heavens-Above · Gunter

§ Orbital elements

Epoch: 2026-05-23T23:43:45.984288Z

Period
844.70 min
Inclination
55.8138°
Eccentricity
0.0005590
Mean motion
1.70473875 rev/d
Perigee alt
23,205.7 km
Apogee alt
23,238.7 km
Semi-major
29,600.3 km
B*
0.0000e+0
RAAN
101.9249°
Arg perigee
335.9950°
Mean anomaly
23.9396°
Rev number
6,436

§ Raw data

GSAT0209 (GALILEO 12)1 41174U 15079A   26143.98872667  .00000018  00000+0  00000+0 0  99952 41174  55.8138 101.9249 0005590 335.9950  23.9396  1.70473875 64361

JSON: /api/v1/satellites/41174 · /tle

For live sub-satellite position, see the globe view (requires WebGL).

§ Visibility from observer

Set your observer location to see the next 7 days of passes ≥ 10°. The values pass through the URL so the page stays shareable.

No JS? Fill the form by hand. The geolocation button needs JavaScript.